Boise, ID

7:31 PM MDT on September 25, 2017 (GMT -0600)
Boise Air Term

Weather History for KBOI - February, 2012

Change the Weather History Date:

Friday, February 3, 2012

  Actual Average Record
Temperature  
Mean Temperature 36 °F 34 °F  
Max Temperature 45 °F 41 °F 60 °F (1953)
Min Temperature 26 °F 27 °F -11 °F (1883)
Degree Days  
Heating Degree Days 29 31  
Month to date heating degree days 81 94  
Since 1 July heating degree days 3135 3455  
Cooling Degree Days 0 0  
Month to date cooling degree days 0 0  
Year to date cooling degree days 0 0  
Moisture  
Dew Point 21 °F    
Average Humidity 58    
Maximum Humidity 75    
Minimum Humidity 41    
Precipitation  
Precipitation 0.00 in 0.03 in 0.87 in (1881)
Month to date precipitation 0.02 0.10  
Year to date precipitation 2.74 1.34  
Snow  
Snow 0.00 in 0.10 in 3.20 in (2008)
Month to date snowfall T 0.4  
Since 1 July snowfall 5.3 15.2  
Snow Depth 0.00 in    
Sea Level Pressure  
Sea Level Pressure 30.36 in    
Wind  
Wind Speed 8 mph (SE)    
Max Wind Speed 14 mph    
Max Gust Speed 20 mph    
Visibility 10 miles    
Events      
T = Trace of Precipitation, MM = Missing Value Source: NWS Daily Summary

Daily Weather History Graph

Daily Weather History Graph

Search for Another Location

Airport or City:

Trip Planner

Search our weather history database for the weather conditions in past years. The results will help you decide how hot, cold, wet, or windy it might be!

Date:

Astronomy

Feb. 03, 2012 Rise Set
Actual Time 7:59 AM MST 5:58 PM MST
Civil Twilight 7:29 AM MST 6:28 PM MST
Nautical Twilight 6:54 AM MST 7:02 PM MST
Astronomical Twilight 6:21 AM MST 7:36 PM MST
Moon 1:59 PM MST (2/3) 4:43 AM MST (2/3)
Length of Visible Light 10h 59m
Length of Day
9h 59m
Waxing Gibbous, 82% of the Moon is Illuminated
Feb 3
Waxing Gibbous
Feb 7
Full
Feb 14
Last Quarter
Feb 21
New
Feb 29
First Quarter

Hourly Weather History & Observations

Time (MST) Temp. Windchill Dew Point Humidity Pressure Visibility Wind Dir Wind Speed Gust Speed Precip Events Conditions
12:53 AM 30.9 °F 21.7 °F 21.9 °F 69% 30.32 in 10.0 mi SSE 11.5 mph - N/A   Clear
1:53 AM 32.0 °F 23.0 °F 23.0 °F 69% 30.33 in 10.0 mi SE 11.5 mph - N/A   Clear
2:53 AM 28.0 °F 18.1 °F 21.0 °F 75% 30.35 in 10.0 mi SE 11.5 mph - N/A   Clear
3:53 AM 28.0 °F 19.3 °F 19.9 °F 72% 30.35 in 10.0 mi SE 9.2 mph - N/A   Clear
4:53 AM 28.0 °F 18.1 °F 19.0 °F 69% 30.35 in 10.0 mi SE 11.5 mph - N/A   Clear
5:53 AM 28.0 °F 20.8 °F 19.0 °F 69% 30.36 in 10.0 mi SE 6.9 mph - N/A   Clear
6:53 AM 26.1 °F - 18.0 °F 71% 30.38 in 10.0 mi Calm Calm - N/A   Clear
7:53 AM 27.0 °F 18.7 °F 17.1 °F 66% 30.40 in 10.0 mi SE 8.1 mph - N/A   Clear
8:53 AM 28.0 °F 21.7 °F 18.0 °F 66% 30.41 in 10.0 mi ESE 5.8 mph - N/A   Clear
9:14 AM 30.2 °F 24.3 °F 19.4 °F 64% 30.35 in 10.0 mi ESE 5.8 mph - N/A   Clear
9:53 AM 32.0 °F 27.5 °F 19.9 °F 61% 30.42 in 10.0 mi ESE 4.6 mph - N/A   Clear
10:53 AM 36.0 °F 29.0 °F 19.0 °F 50% 30.42 in 10.0 mi SE 9.2 mph - N/A   Clear
11:53 AM 39.0 °F 33.4 °F 19.9 °F 46% 30.42 in 10.0 mi SE 8.1 mph - N/A   Clear
12:53 PM 41.0 °F 38.0 °F 21.9 °F 47% 30.40 in 10.0 mi SE 4.6 mph - N/A   Clear
1:53 PM 43.0 °F 40.3 °F 23.0 °F 45% 30.37 in 10.0 mi SSE 4.6 mph - N/A   Clear
2:53 PM 45.0 °F 41.8 °F 25.0 °F 46% 30.36 in 10.0 mi South 5.8 mph - N/A   Clear
3:53 PM 45.0 °F 40.1 °F 23.0 °F 42% 30.36 in 10.0 mi SSE 9.2 mph - N/A   Clear
4:53 PM 44.1 °F 41.5 °F 23.0 °F 43% 30.35 in 10.0 mi South 4.6 mph - N/A   Clear
5:53 PM 39.9 °F 35.1 °F 21.9 °F 49% 30.36 in 10.0 mi SE 6.9 mph - N/A   Clear
6:53 PM 35.1 °F 28.6 °F 21.0 °F 57% 30.37 in 10.0 mi SE 8.1 mph - N/A   Clear
7:53 PM 33.1 °F 26.9 °F 21.0 °F 61% 30.38 in 10.0 mi ESE 6.9 mph - N/A   Clear
8:53 PM 30.9 °F 23.5 °F 21.0 °F 67% 30.37 in 10.0 mi SE 8.1 mph - N/A   Clear
9:53 PM 30.9 °F 23.5 °F 19.9 °F 64% 30.37 in 10.0 mi SE 8.1 mph - N/A   Clear
10:53 PM 32.0 °F 25.6 °F 19.9 °F 61% 30.36 in 10.0 mi SE 6.9 mph - N/A   Clear
11:53 PM 30.9 °F 23.5 °F 19.9 °F 64% 30.36 in 10.0 mi SE 8.1 mph - N/A   Clear